When you browse on this site, cookies collect data to enhance your experience and personalize the content and advertising you see.
Visit our Privacy Policy to learn more. By continuing to use the site, you agree to this use of cookies and data.
  • în România
  • Lista ţărilor
  • Pe 7 zile
  • Temperatura apei
  • Hartă satelitară
  • Meteo pe hartă
  • Widget-uri
  • user-avatar
    Intrare

    Meteo pe oră la Kurkieki

    Astăzi, 17 Februarie, Duminică

    Timp Temperatura Precipitaţii Vânt Presiune Umiditate
    00:00 -2°C° 0 mm 6 m/s 746 mmHg 81%
    01:00 -2°C° 0 mm 6 m/s 746 mmHg 78%
    02:00 -3°C° 0 mm 6 m/s 745 mmHg 75%
    03:00 -3°C° 0 mm 7 m/s 746 mmHg 74%
    04:00 -3°C° 0 mm 7 m/s 746 mmHg 73%
    05:00 -3°C° 0 mm 7 m/s 746 mmHg 72%
    06:00 -4°C° 0 mm 8 m/s 746 mmHg 72%
    07:00 -4°C° 0 mm 8 m/s 746 mmHg 72%
    08:00 -2°C° 0 mm 7 m/s 747 mmHg 73%
    09:00 -2°C° 0 mm 8 m/s 748 mmHg 71%
    10:00 -2°C° 0 mm 8 m/s 749 mmHg 70%
    11:00 -3°C° 0 mm 9 m/s 750 mmHg 68%
    12:00 -2°C° 0 mm 8 m/s 751 mmHg 68%
    13:00 -4°C° 0 mm 8 m/s 752 mmHg 67%
    14:00 -2°C° 0 mm 7 m/s 753 mmHg 66%
    15:00 -3°C° 0 mm 6 m/s 755 mmHg 68%
    16:00 -4°C° 0 mm 6 m/s 756 mmHg 70%
    17:00 -5°C° 0 mm 6 m/s 757 mmHg 72%
    18:00 -6°C° 0 mm 6 m/s 758 mmHg 74%
    19:00 -7°C° 0 mm 5 m/s 759 mmHg 76%
    20:00 -7°C° 0 mm 5 m/s 760 mmHg 78%
    21:00 -8°C° 0 mm 5 m/s 761 mmHg 80%
    22:00 -9°C° 0 mm 4 m/s 762 mmHg 82%
    23:00 -9°C° 0 mm 4 m/s 763 mmHg 85%

    Mâine, 18 Februarie, Luni

    Timp Temperatura Precipitaţii Vânt Presiune Umiditate
    00:00 -10°C° 0 mm 4 m/s 763 mmHg 86%
    01:00 -9°C° 0 mm 3 m/s 764 mmHg 88%
    02:00 -10°C° 0 mm 3 m/s 765 mmHg 90%
    03:00 -12°C° 0 mm 3 m/s 765 mmHg 91%
    04:00 -10°C° 0 mm 2 m/s 765 mmHg 92%
    05:00 -12°C° 0 mm 2 m/s 766 mmHg 93%
    06:00 -10°C° 0 mm 1 m/s 766 mmHg 92%
    07:00 -11°C° 0 mm 1 m/s 766 mmHg 91%
    08:00 -11°C° 0 mm 0 m/s 766 mmHg 90%
    09:00 -9°C° 0 mm 1 m/s 766 mmHg 87%
    10:00 -8°C° 0 mm 1 m/s 766 mmHg 84%
    11:00 -7°C° 0 mm 2 m/s 766 mmHg 82%
    12:00 -7°C° 0 mm 2 m/s 765 mmHg 81%
    13:00 -7°C° 0 mm 3 m/s 764 mmHg 79%
    14:00 -7°C° 0 mm 4 m/s 764 mmHg 78%
    15:00 -7°C° 0 mm 4 m/s 763 mmHg 77%
    16:00 -7°C° 0 mm 5 m/s 762 mmHg 75%
    17:00 -6°C° 0 mm 5 m/s 761 mmHg 73%
    18:00 -6°C° 0 mm 5 m/s 760 mmHg 75%
    19:00 -5°C° 0 mm 6 m/s 759 mmHg 78%
    20:00 -5°C° 0 mm 6 m/s 758 mmHg 80%
    21:00 -4°C° 0 mm 6 m/s 757 mmHg 82%
    22:00 -3°C° 0 mm 6 m/s 756 mmHg 84%
    23:00 -2°C° 0 mm 6 m/s 755 mmHg 86%

    Poimâine, 19 Februarie, Marţi

    Timp Temperatura Precipitaţii Vânt Presiune Umiditate
    00:00 -1°C° 0.1 mm 6 m/s 754 mmHg 87%
    01:00 -1°C° 0.1 mm 6 m/s 754 mmHg 89%
    02:00 0°C° 0.1 mm 7 m/s 753 mmHg 90%
    03:00 -1°C° 0 mm 6 m/s 752 mmHg 91%
    04:00 -1°C° 0 mm 6 m/s 752 mmHg 92%
    05:00 -1°C° 0 mm 6 m/s 751 mmHg 93%
    06:00 -1°C° 0 mm 6 m/s 751 mmHg 93%
    07:00 -1°C° 0 mm 6 m/s 751 mmHg 93%
    08:00 -1°C° 0 mm 6 m/s 750 mmHg 93%
    09:00 +1°C° 0 mm 6 m/s 750 mmHg 93%
    10:00 +1°C° 0 mm 6 m/s 750 mmHg 93%
    11:00 +1°C° 0 mm 6 m/s 750 mmHg 93%
    12:00 +1°C° 0.3 mm 5 m/s 749 mmHg 93%
    13:00 +1°C° 0.3 mm 5 m/s 749 mmHg 94%
    14:00 +1°C° 0.3 mm 5 m/s 748 mmHg 94%
    15:00 +1°C° 0.5 mm 5 m/s 748 mmHg 94%
    16:00 0°C° 0.5 mm 5 m/s 747 mmHg 95%
    17:00 0°C° 0.5 mm 5 m/s 746 mmHg 95%
    18:00 0°C° 0.6 mm 4 m/s 746 mmHg 95%
    19:00 0°C° 0.6 mm 4 m/s 745 mmHg 94%
    20:00 0°C° 0.6 mm 4 m/s 745 mmHg 94%
    21:00 0°C° 0.1 mm 4 m/s 745 mmHg 94%
    22:00 0°C° 0.1 mm 4 m/s 744 mmHg 94%
    23:00 0°C° 0.1 mm 4 m/s 744 mmHg 94%

    20 Februarie, Miercuri

    Timp Temperatura Precipitaţii Vânt Presiune Umiditate
    00:00 0°C° 0 mm 4 m/s 743 mmHg 95%
    01:00 0°C° 0 mm 4 m/s 743 mmHg 95%
    02:00 -1°C° 0 mm 4 m/s 743 mmHg 96%
    03:00 -1°C° 0 mm 4 m/s 742 mmHg 95%
    04:00 -1°C° 0 mm 4 m/s 742 mmHg 95%
    05:00 -1°C° 0 mm 4 m/s 741 mmHg 94%
    06:00 -1°C° 0.1 mm 4 m/s 741 mmHg 93%
    07:00 -1°C° 0.1 mm 4 m/s 741 mmHg 93%
    08:00 -1°C° 0.1 mm 4 m/s 741 mmHg 92%
    09:00 -1°C° 0 mm 4 m/s 741 mmHg 92%
    10:00 -1°C° 0 mm 4 m/s 740 mmHg 91%
    11:00 +1°C° 0 mm 3 m/s 740 mmHg 91%
    12:00 -1°C° 0.3 mm 4 m/s 740 mmHg 89%
    13:00 -1°C° 0.3 mm 4 m/s 740 mmHg 88%
    14:00 -1°C° 0.3 mm 4 m/s 740 mmHg 87%
    15:00 -1°C° 0.1 mm 4 m/s 741 mmHg 85%
    16:00 -2°C° 0.1 mm 4 m/s 741 mmHg 84%
    17:00 -3°C° 0.1 mm 4 m/s 741 mmHg 83%
    18:00 -3°C° 0.2 mm 4 m/s 742 mmHg 86%
    19:00 -3°C° 0.2 mm 4 m/s 743 mmHg 89%
    20:00 -2°C° 0.2 mm 4 m/s 744 mmHg 92%
    21:00 -4°C° 0.3 mm 5 m/s 744 mmHg 89%
    22:00 -6°C° 0.3 mm 7 m/s 745 mmHg 87%
    23:00 -7°C° 0.3 mm 8 m/s 746 mmHg 84%

    21 Februarie, Joi

    Timp Temperatura Precipitaţii Vânt Presiune Umiditate
    00:00 -8°C° 0.3 mm 8 m/s 748 mmHg 83%
    01:00 -10°C° 0.3 mm 8 m/s 749 mmHg 81%
    02:00 -11°C° 0.3 mm 8 m/s 750 mmHg 80%
    03:00 -11°C° 0.1 mm 8 m/s 752 mmHg 78%
    04:00 -12°C° 0.1 mm 8 m/s 753 mmHg 77%
    05:00 -12°C° 0.1 mm 8 m/s 755 mmHg 75%
    06:00 -12°C° 0 mm 8 m/s 756 mmHg 74%
    07:00 -12°C° 0 mm 8 m/s 757 mmHg 74%
    08:00 -12°C° 0 mm 8 m/s 759 mmHg 73%
    09:00 -12°C° 0 mm 7 m/s 760 mmHg 73%
    10:00 -12°C° 0 mm 7 m/s 761 mmHg 73%
    11:00 -11°C° 0 mm 6 m/s 762 mmHg 73%
    12:00 -11°C° 0 mm 6 m/s 763 mmHg 72%
    13:00 -11°C° 0 mm 6 m/s 764 mmHg 71%
    14:00 -11°C° 0 mm 5 m/s 765 mmHg 70%
    15:00 -11°C° 0 mm 5 m/s 765 mmHg 72%
    16:00 -10°C° 0 mm 4 m/s 766 mmHg 73%
    17:00 -11°C° 0 mm 4 m/s 767 mmHg 75%
    18:00 -11°C° 0 mm 4 m/s 767 mmHg 78%
    19:00 -12°C° 0 mm 3 m/s 768 mmHg 81%
    20:00 -12°C° 0 mm 3 m/s 769 mmHg 84%
    21:00 -13°C° 0 mm 3 m/s 769 mmHg 85%
    22:00 -13°C° 0 mm 3 m/s 770 mmHg 86%
    23:00 -12°C° 0 mm 2 m/s 770 mmHg 87%

    22 Februarie, Vineri

    Timp Temperatura Precipitaţii Vânt Presiune Umiditate
    00:00 -13°C° 0 mm 2 m/s 771 mmHg 86%
    01:00 -13°C° 0 mm 2 m/s 771 mmHg 85%
    02:00 -13°C° 0 mm 2 m/s 772 mmHg 84%
    03:00 -13°C° 0 mm 2 m/s 772 mmHg 83%
    04:00 -13°C° 0 mm 2 m/s 772 mmHg 81%
    05:00 -13°C° 0 mm 2 m/s 773 mmHg 80%
    06:00 -13°C° 0 mm 2 m/s 773 mmHg 78%
    07:00 -14°C° 0 mm 3 m/s 773 mmHg 77%
    08:00 -13°C° 0 mm 3 m/s 774 mmHg 76%
    09:00 -12°C° 0 mm 3 m/s 774 mmHg 74%
    10:00 -10°C° 0 mm 3 m/s 774 mmHg 71%
    11:00 -9°C° 0 mm 3 m/s 774 mmHg 69%
    12:00 -8°C° 0 mm 3 m/s 774 mmHg 68%
    13:00 -7°C° 0 mm 3 m/s 775 mmHg 68%
    14:00 -7°C° 0 mm 3 m/s 775 mmHg 67%
    15:00 -8°C° 0 mm 3 m/s 775 mmHg 72%
    16:00 -8°C° 0 mm 3 m/s 774 mmHg 77%
    17:00 -8°C° 0 mm 2 m/s 774 mmHg 82%
    18:00 -8°C° 0 mm 2 m/s 774 mmHg 84%
    19:00 -9°C° 0 mm 3 m/s 774 mmHg 85%
    20:00 -8°C° 0 mm 3 m/s 773 mmHg 86%
    21:00 -8°C° 0 mm 3 m/s 773 mmHg 88%
    22:00 -7°C° 0 mm 3 m/s 772 mmHg 89%
    23:00 -8°C° 0 mm 4 m/s 771 mmHg 90%
    Arată mai mult